Regional Weather Roundup
Issued by NWS Newport/Morehead, NC

Current Version | Previous Version | Graphics & Text | Print | Product List | Glossary Off
Versions: 1 2 3 4 5 6 7 8 9 10 11 12 13 14 15 16 17 18 19 20 21 22 23 24 25 26 27 28 29 30 31 32 33 34 35 36 37 38 39 40 41 42 43 44 45 46 47 48 49 50

000
ASUS42 KMHX 231110
RWRMHX
WEATHER ROUNDUP FOR EASTERN NORTH CAROLINA
NATIONAL WEATHER SERVICE NEWPORT/MOREHEAD CITY NC
700 AM EDT SAT AUG 23 2014

NOTE: "FAIR" INDICATES FEW OR NO CLOUDS BELOW 12,000 FEET
WITH NO SIGNIFICANT WEATHER AND/OR OBSTRUCTIONS TO VISIBILITY

NCZ015>017-031-032-045>047-102-103-231200-
NORTH COAST

CITY           SKY/WX    TMP DP  RH WIND       PRES   REMARKS
EDENTON        CLOUDY    72  71  96 CALM      29.94S FOG
ELIZABETH CITY CLEAR     74  72  93 NE5       29.94R
KITTY HAWK     MOSUNNY   76  71  85 CALM      29.93R
MANTEO         PTCLDY    75  72  88 NE6       29.94R

$$

NCZ045>047-081-094-103-104-231200-
CENTRAL COAST

CITY           SKY/WX    TMP DP  RH WIND       PRES   REMARKS
FRISCO         CLOUDY    75  73  93 NE3       29.92R
SWANQUARTER      N/A     73 N/A N/A CALM      29.91R

$$

NCZ095-097-098-100-101-231200-
SOUTHERN COAST

CITY           SKY/WX    TMP DP  RH WIND       PRES   REMARKS
BEAUFORT       PTCLDY    79  75  87 CALM      29.92S
CEDAR ISLAND     N/A     81 N/A N/A NE3G9     29.97R
JACKSONVILLE   CLOUDY    76  72  87 NE6       29.92R
NEWPORT        NOT AVBL
PINEY ISLAND   PTSUNNY   81  74  79 E6        29.92R
WILMINGTON     MOCLDY    74  72  93 CALM      29.91S


$$

NCZ011>013-027>030-043-044-078>080-089-090>093-098-231200-
COASTAL PLAIN

CITY           SKY/WX    TMP DP  RH WIND       PRES   REMARKS
AHOSKIE          N/A     70  69  96 CALM      29.96R
CLINTON        MOCLDY    74  73  96 CALM      29.93S
ELIZABETHTOWN  MOCLDY    74  73  98 CALM      29.91S
GOLDSBORO      MOCLDY    74  74  98 NE7       29.92R
GREENVILLE     LGT RAIN  73  72  94 CALM      29.97R
HAVELOCK       CLOUDY    78  74  87 N6        29.94R
KENANSVILLE    MOCLDY    72  71  96 CALM      29.94R
KINSTON        LGT RAIN  75  72  88 NE3       29.95R
NEW BERN       MOCLDY    78  73  84 E6        29.94S
RICHLANDS      MOCLDY    73  70  88 NE3       29.93S
ROANOKE RAPIDS NOT AVBL
ROCKY MOUNT    MOCLDY    73  72  96 NE3       29.95S FOG
WASHINGTON     MOCLDY    73  72  94 CALM      29.95R
WHITEVILLE     PTCLDY    75  73  94 CALM      29.90S FOG

$$

AMZ130-135-150-152-154-156-158-170-250-252-270-ANZ085-086-088-633-658-670-231200-
MARINE OBSERVATIONS

STATION/POSITION TIME  TEMP    WIND        PRES    WAVE   SWELL
                       AIR SEA DIR/SP/G            HT/PER HT/PER
                 (UTC) (F)     (DEG/KT/KT) (MB)    (FT/S) (FT/S)
CHESAPEAKE LIGHT 1000   76      60/ 14/ 15 1014.3
BUOY 44014       1100   77 78   40/ 14/ 16 1013.2    3/ 7   2/ 7
DUCK             1100   77 80   50/  9/ 10 1012.9
2E DUCK          1100                        N/A     2/ 8
OREGON INLET     1100   77 81   40/  5/  8 1013.3
BUOY 44095       1100      80                N/A     2/ 8
20E OREGON INLET NOT AVBL
HATTERAS CG      1100   78 82   40/  3/  6 1013.5
DIAMOND BUOY     1100   78     350/  8/ 10 1012.8    2/ 8   2/ 8
CAPE LOOKOUT     1000   80      90/  4/  5 1012.9
BEAUFORT LAB     1100   80 83   80/  2/  4 1012.8
30 SE NEW RIVER  1100   81 82   70/  4/  6 1012.6    1/ 4   2/ 9
5 SE WRIGHTSVILL 1100   79 83   80/  8/ 10   N/A
BUOY 41002       0957   82 82  260/ 14/ 16 1014.1    3/ 4   2/ 7
BUOY 41004       1100   85 84  230/ 12/ 14 1011.8    2/ 4   2/ 7

$$


USA.gov is the U.S. government's official web portal to all federal, state and local government web resources and services.